Location: G�ndlingen
(48.0142°N, 7.6396°E)
Time: 08:27:04
(UTC+00:00)

Cosmos 2181 Rocket - Pass Details

Date: 05 July 2020
Orbit: 951 x 1015 km, 82.9° (Epoch: 05 August)

Event Time Altitude Azimuth Distance (km) Brightness Sun altitude
Rises 21:20:01 0° 349° (NNW) 3,737 8.5 -13.2°
Reaches altitude 10° 21:22:35 10° 347° (NNW) 2,775 7.6 -13.4°
Maximum altitude 21:28:54 71° 266° (W) 1,043 4.2 -13.9°
Enters shadow 21:34:16 14° 184° (S) 2,415 5.6 -14.4°
